Location: Northcutt
(34.7304°N, 84.4305°W)
Time: 19:11:32
(UTC+00:00)

Transit 2A Rocket - Pass Details

Date: 07 October 2022
Orbit: 589 x 911 km, 66.7° (Epoch: 03 December)

Event Time Altitude Azimuth Distance (km) Brightness Sun altitude
Rises 17:57:25 0° 352° (N) 3,038 7.7 48.9°
Reaches altitude 10° 18:00:38 10° 16° (NNE) 2,186 7.1 48.7°
Maximum altitude 18:03:34 15° 52° (NE) 1,899 6.9 48.6°
Drops below altitude 10° 18:06:37 10° 88° (E) 2,308 7.5 48.4°
Sets 18:10:09 0° 110° (ESE) 3,307 8.3 48.2°
